Time,TemperatureF,DewpointF,PressureIn,WindDirection,WindDirectionDegrees,WindSpeedMPH,WindSpeedGustMPH,Humidity,HourlyPrecipIn,Conditions,Clouds,dailyrainin,SoftwareType,DateUTC
2013-06-05 00:22:00,65.0,27.0,-100.00,North,-999,-999.0,-999.0,24,0.00,,,-99.99,,2013-06-05 07:22:00,
2013-06-05 00:32:00,65.0,27.0,-100.00,North,-999,-999.0,-999.0,24,0.00,,,-99.99,,2013-06-05 07:32:00,
2013-06-05 01:22:00,58.0,26.0,-100.00,North,-999,-999.0,-999.0,30,0.00,,,-99.99,,2013-06-05 08:22:00,
2013-06-05 01:32:00,58.0,26.0,-100.00,North,-999,-999.0,-999.0,30,0.00,,,-99.99,,2013-06-05 08:32:00,
2013-06-05 02:22:00,54.0,26.0,-100.00,North,-999,-999.0,-999.0,34,0.00,,,-99.99,,2013-06-05 09:22:00,
2013-06-05 02:33:00,54.0,26.0,-100.00,North,-999,-999.0,-999.0,34,0.00,,,-99.99,,2013-06-05 09:33:00,
2013-06-05 03:23:00,52.0,25.0,-100.00,North,-999,-999.0,-999.0,36,0.00,,,-99.99,,2013-06-05 10:23:00,
2013-06-05 03:33:00,52.0,25.0,-100.00,North,-999,-999.0,-999.0,36,0.00,,,-99.99,,2013-06-05 10:33:00,
2013-06-05 04:22:00,51.0,28.0,-100.00,North,-999,-999.0,-999.0,41,0.00,,,-99.99,,2013-06-05 11:22:00,
2013-06-05 04:33:00,51.0,28.0,-100.00,North,-999,-999.0,-999.0,41,0.00,,,-99.99,,2013-06-05 11:33:00,
2013-06-05 05:00:00,48.0,28.0,-100.00,North,-999,-999.0,-999.0,46,0.00,,,-99.99,,2013-06-05 12:00:00,
2013-06-05 05:22:00,48.0,28.0,-100.00,North,-999,-999.0,-999.0,46,0.00,,,-99.99,,2013-06-05 12:22:00,
2013-06-05 05:32:00,48.0,28.0,-100.00,North,-999,-999.0,-999.0,46,0.00,,,-99.99,,2013-06-05 12:32:00,
2013-06-05 05:52:00,48.0,28.0,-100.00,North,-999,-999.0,-999.0,46,0.00,,,-99.99,,2013-06-05 12:52:00,
2013-06-05 06:00:00,48.0,29.0,-100.00,North,-999,-999.0,-999.0,47,0.00,,,-99.99,,2013-06-05 13:00:00,
2013-06-05 06:22:00,48.0,29.0,-100.00,North,-999,-999.0,-999.0,47,0.00,,,-99.99,,2013-06-05 13:22:00,
2013-06-05 06:33:00,48.0,29.0,-100.00,North,-999,-999.0,-999.0,47,0.00,,,-99.99,,2013-06-05 13:33:00,
2013-06-05 06:42:00,48.0,29.0,-100.00,North,-999,-999.0,-999.0,47,0.00,,,-99.99,,2013-06-05 13:42:00,
2013-06-05 06:52:00,48.0,29.0,-100.00,North,-999,-999.0,-999.0,47,0.00,,,-99.99,,2013-06-05 13:52:00,
2013-06-05 07:00:00,63.0,33.0,-100.00,North,-999,-999.0,-999.0,33,0.00,,,-99.99,,2013-06-05 14:00:00,
2013-06-05 07:22:00,63.0,33.0,-100.00,North,-999,-999.0,-999.0,33,0.00,,,-99.99,,2013-06-05 14:22:00,
2013-06-05 07:32:00,63.0,33.0,-100.00,North,-999,-999.0,-999.0,33,0.00,,,-99.99,,2013-06-05 14:32:00,
2013-06-05 07:42:00,63.0,33.0,-100.00,North,-999,-999.0,-999.0,33,0.00,,,-99.99,,2013-06-05 14:42:00,
2013-06-05 07:52:00,63.0,33.0,-100.00,North,-999,-999.0,-999.0,33,0.00,,,-99.99,,2013-06-05 14:52:00,
2013-06-05 08:00:00,75.0,35.0,-100.00,North,-999,-999.0,-999.0,23,0.00,,,-99.99,,2013-06-05 15:00:00,
2013-06-05 08:23:00,75.0,35.0,-100.00,North,-999,-999.0,-999.0,23,0.00,,,-99.99,,2013-06-05 15:23:00,
2013-06-05 08:33:00,75.0,35.0,-100.00,North,-999,-999.0,-999.0,23,0.00,,,-99.99,,2013-06-05 15:33:00,
2013-06-05 08:43:00,75.0,35.0,-100.00,North,-999,-999.0,-999.0,23,0.00,,,-99.99,,2013-06-05 15:43:00,
2013-06-05 08:53:00,75.0,35.0,-100.00,North,-999,-999.0,-999.0,23,0.00,,,-99.99,,2013-06-05 15:53:00,
2013-06-05 09:00:00,84.0,33.0,-100.00,North,-999,-999.0,-999.0,15,0.00,,,-99.99,,2013-06-05 16:00:00,
2013-06-05 09:23:00,84.0,33.0,-100.00,North,-999,-999.0,-999.0,15,0.00,,,-99.99,,2013-06-05 16:23:00,
2013-06-05 09:32:00,84.0,33.0,-100.00,North,-999,-999.0,-999.0,15,0.00,,,-99.99,,2013-06-05 16:32:00,
2013-06-05 09:42:00,84.0,33.0,-100.00,North,-999,-999.0,-999.0,15,0.00,,,-99.99,,2013-06-05 16:42:00,
2013-06-05 09:54:00,84.0,33.0,-100.00,North,-999,-999.0,-999.0,15,0.00,,,-99.99,,2013-06-05 16:54:00,
2013-06-05 10:00:00,87.0,30.0,-100.00,North,-999,-999.0,-999.0,12,0.00,,,-99.99,,2013-06-05 17:00:00,
2013-06-05 10:22:00,87.0,30.0,-100.00,North,-999,-999.0,-999.0,12,0.00,,,-99.99,,2013-06-05 17:22:00,
2013-06-05 10:33:00,87.0,30.0,-100.00,North,-999,-999.0,-999.0,12,0.00,,,-99.99,,2013-06-05 17:33:00,
2013-06-05 10:43:00,87.0,30.0,-100.00,North,-999,-999.0,-999.0,12,0.00,,,-99.99,,2013-06-05 17:43:00,
2013-06-05 10:52:00,87.0,30.0,-100.00,North,-999,-999.0,-999.0,12,0.00,,,-99.99,,2013-06-05 17:52:00,
2013-06-05 11:23:00,93.0,29.0,-100.00,North,-999,-999.0,-999.0,10,0.00,,,-99.99,,2013-06-05 18:23:00,
2013-06-05 11:32:00,93.0,29.0,-100.00,North,-999,-999.0,-999.0,10,0.00,,,-99.99,,2013-06-05 18:32:00,
2013-06-05 11:42:00,93.0,29.0,-100.00,North,-999,-999.0,-999.0,10,0.00,,,-99.99,,2013-06-05 18:42:00,
2013-06-05 11:52:00,93.0,29.0,-100.00,North,-999,-999.0,-999.0,10,0.00,,,-99.99,,2013-06-05 18:52:00,
2013-06-05 12:00:00,94.0,18.0,-100.00,North,-999,-999.0,-999.0,6,0.00,,,-99.99,,2013-06-05 19:00:00,
2013-06-05 12:23:00,94.0,18.0,-100.00,North,-999,-999.0,-999.0,6,0.00,,,-99.99,,2013-06-05 19:23:00,
2013-06-05 12:32:00,94.0,18.0,-100.00,North,-999,-999.0,-999.0,6,0.00,,,-99.99,,2013-06-05 19:32:00,
2013-06-05 12:42:00,94.0,18.0,-100.00,North,-999,-999.0,-999.0,6,0.00,,,-99.99,,2013-06-05 19:42:00,
2013-06-05 12:52:00,94.0,18.0,-100.00,North,-999,-999.0,-999.0,6,0.00,,,-99.99,,2013-06-05 19:52:00,
2013-06-05 13:00:00,96.0,15.0,-100.00,North,-999,-999.0,-999.0,5,0.00,,,-99.99,,2013-06-05 20:00:00,
2013-06-05 13:23:00,96.0,15.0,-100.00,North,-999,-999.0,-999.0,5,0.00,,,-99.99,,2013-06-05 20:23:00,
2013-06-05 13:32:00,96.0,15.0,-100.00,North,-999,-999.0,-999.0,5,0.00,,,-99.99,,2013-06-05 20:32:00,
2013-06-05 13:42:00,96.0,15.0,-100.00,North,-999,-999.0,-999.0,5,0.00,,,-99.99,,2013-06-05 20:42:00,
2013-06-05 13:52:00,96.0,15.0,-100.00,North,-999,-999.0,-999.0,5,0.00,,,-99.99,,2013-06-05 20:52:00,
2013-06-05 14:00:00,98.0,16.0,-100.00,North,-999,-999.0,-999.0,4,0.00,,,-99.99,,2013-06-05 21:00:00,
2013-06-05 14:23:00,98.0,16.0,-100.00,North,-999,-999.0,-999.0,4,0.00,,,-99.99,,2013-06-05 21:23:00,
2013-06-05 14:33:00,98.0,16.0,-100.00,North,-999,-999.0,-999.0,4,0.00,,,-99.99,,2013-06-05 21:33:00,
2013-06-05 14:43:00,98.0,16.0,-100.00,North,-999,-999.0,-999.0,4,0.00,,,-99.99,,2013-06-05 21:43:00,
2013-06-05 14:53:00,98.0,16.0,-100.00,North,-999,-999.0,-999.0,4,0.00,,,-99.99,,2013-06-05 21:53:00,
2013-06-05 15:00:00,98.0,16.0,-100.00,North,-999,-999.0,-999.0,4,0.00,,,-99.99,,2013-06-05 22:00:00,
2013-06-05 15:22:00,98.0,16.0,-100.00,North,-999,-999.0,-999.0,4,0.00,,,-99.99,,2013-06-05 22:22:00,
2013-06-05 15:33:00,98.0,16.0,-100.00,North,-999,-999.0,-999.0,4,0.00,,,-99.99,,2013-06-05 22:33:00,
2013-06-05 15:43:00,98.0,16.0,-100.00,North,-999,-999.0,-999.0,4,0.00,,,-99.99,,2013-06-05 22:43:00,
2013-06-05 15:52:00,98.0,16.0,-100.00,North,-999,-999.0,-999.0,4,0.00,,,-99.99,,2013-06-05 22:52:00,
2013-06-05 16:00:00,97.0,16.0,-100.00,North,-999,-999.0,-999.0,5,0.00,,,-99.99,,2013-06-05 23:00:00,
2013-06-05 16:22:00,97.0,16.0,-100.00,North,-999,-999.0,-999.0,5,0.00,,,-99.99,,2013-06-05 23:22:00,
2013-06-05 16:32:00,97.0,16.0,-100.00,North,-999,-999.0,-999.0,5,0.00,,,-99.99,,2013-06-05 23:32:00,
2013-06-05 16:42:00,97.0,16.0,-100.00,North,-999,-999.0,-999.0,5,0.00,,,-99.99,,2013-06-05 23:42:00,
2013-06-05 16:53:00,97.0,16.0,-100.00,North,-999,-999.0,-999.0,5,0.00,,,-99.99,,2013-06-05 23:53:00,
2013-06-05 17:00:00,96.0,14.0,-100.00,North,-999,-999.0,-999.0,4,0.00,,,-99.99,,2013-06-06 00:00:00,
2013-06-05 17:22:00,96.0,14.0,-100.00,North,-999,-999.0,-999.0,4,0.00,,,-99.99,,2013-06-06 00:22:00,
2013-06-05 17:32:00,96.0,14.0,-100.00,North,-999,-999.0,-999.0,4,0.00,,,-99.99,,2013-06-06 00:32:00,
2013-06-05 17:43:00,96.0,14.0,-100.00,North,-999,-999.0,-999.0,4,0.00,,,-99.99,,2013-06-06 00:43:00,
2013-06-05 17:52:00,96.0,14.0,-100.00,North,-999,-999.0,-999.0,4,0.00,,,-99.99,,2013-06-06 00:52:00,
2013-06-05 18:00:00,91.0,14.0,-100.00,North,-999,-999.0,-999.0,5,0.00,,,-99.99,,2013-06-06 01:00:00,
2013-06-05 18:22:00,91.0,14.0,-100.00,North,-999,-999.0,-999.0,5,0.00,,,-99.99,,2013-06-06 01:22:00,
2013-06-05 18:32:00,91.0,14.0,-100.00,North,-999,-999.0,-999.0,5,0.00,,,-99.99,,2013-06-06 01:32:00,
2013-06-05 18:42:00,91.0,14.0,-100.00,North,-999,-999.0,-999.0,5,0.00,,,-99.99,,2013-06-06 01:42:00,
2013-06-05 18:53:00,91.0,14.0,-100.00,North,-999,-999.0,-999.0,5,0.00,,,-99.99,,2013-06-06 01:53:00,
2013-06-05 19:00:00,87.0,16.0,-100.00,North,-999,-999.0,-999.0,7,0.00,,,-99.99,,2013-06-06 02:00:00,
2013-06-05 19:22:00,87.0,16.0,-100.00,North,-999,-999.0,-999.0,7,0.00,,,-99.99,,2013-06-06 02:22:00,
2013-06-05 19:32:00,87.0,16.0,-100.00,North,-999,-999.0,-999.0,7,0.00,,,-99.99,,2013-06-06 02:32:00,
2013-06-05 19:42:00,87.0,16.0,-100.00,North,-999,-999.0,-999.0,7,0.00,,,-99.99,,2013-06-06 02:42:00,
2013-06-05 19:52:00,87.0,16.0,-100.00,North,-999,-999.0,-999.0,7,0.00,,,-99.99,,2013-06-06 02:52:00,
2013-06-05 20:00:00,81.0,17.0,-100.00,North,-999,-999.0,-999.0,9,0.00,,,-99.99,,2013-06-06 03:00:00,
2013-06-05 20:22:00,81.0,17.0,-100.00,North,-999,-999.0,-999.0,9,0.00,,,-99.99,,2013-06-06 03:22:00,
2013-06-05 20:33:00,81.0,17.0,-100.00,North,-999,-999.0,-999.0,9,0.00,,,-99.99,,2013-06-06 03:33:00,
2013-06-05 20:43:00,81.0,17.0,-100.00,North,-999,-999.0,-999.0,9,0.00,,,-99.99,,2013-06-06 03:43:00,
2013-06-05 20:52:00,81.0,17.0,-100.00,North,-999,-999.0,-999.0,9,0.00,,,-99.99,,2013-06-06 03:52:00,
2013-06-05 21:00:00,68.0,17.0,-100.00,North,-999,-999.0,-999.0,14,0.00,,,-99.99,,2013-06-06 04:00:00,
2013-06-05 21:23:00,68.0,17.0,-100.00,North,-999,-999.0,-999.0,14,0.00,,,-99.99,,2013-06-06 04:23:00,
2013-06-05 21:33:00,68.0,17.0,-100.00,North,-999,-999.0,-999.0,14,0.00,,,-99.99,,2013-06-06 04:33:00,
2013-06-05 21:42:00,68.0,17.0,-100.00,North,-999,-999.0,-999.0,14,0.00,,,-99.99,,2013-06-06 04:42:00,
2013-06-05 21:53:00,68.0,17.0,-100.00,North,-999,-999.0,-999.0,14,0.00,,,-99.99,,2013-06-06 04:53:00,
2013-06-05 22:00:00,63.0,16.0,-100.00,North,-999,-999.0,-999.0,15,0.00,,,-99.99,,2013-06-06 05:00:00,
2013-06-05 22:23:00,63.0,16.0,-100.00,North,-999,-999.0,-999.0,15,0.00,,,-99.99,,2013-06-06 05:23:00,
2013-06-05 22:32:00,63.0,16.0,-100.00,North,-999,-999.0,-999.0,15,0.00,,,-99.99,,2013-06-06 05:32:00,
2013-06-05 22:42:00,63.0,16.0,-100.00,North,-999,-999.0,-999.0,15,0.00,,,-99.99,,2013-06-06 05:42:00,
2013-06-05 22:52:00,63.0,16.0,-100.00,North,-999,-999.0,-999.0,15,0.00,,,-99.99,,2013-06-06 05:52:00,
2013-06-05 23:00:00,57.0,15.0,-100.00,North,-999,-999.0,-999.0,18,0.00,,,-99.99,,2013-06-06 06:00:00,
2013-06-05 23:22:00,57.0,15.0,-100.00,North,-999,-999.0,-999.0,18,0.00,,,-99.99,,2013-06-06 06:22:00,
2013-06-05 23:33:00,57.0,15.0,-100.00,North,-999,-999.0,-999.0,18,0.00,,,-99.99,,2013-06-06 06:33:00,
2013-06-05 23:42:00,57.0,15.0,-100.00,North,-999,-999.0,-999.0,18,0.00,,,-99.99,,2013-06-06 06:42:00,
2013-06-05 23:52:00,57.0,15.0,-100.00,North,-999,-999.0,-999.0,18,0.00,,,-99.99,,2013-06-06 06:52:00,